Time,TemperatureF,DewpointF,PressureIn,WindDirection,WindDirectionDegrees,WindSpeedMPH,WindSpeedGustMPH,Humidity,HourlyPrecipIn,Conditions,Clouds,dailyrainin,SoftwareType,DateUTC
2012-11-26 00:02:00,39.4,34.0,30.19,NNE,32,0.0,0.0,81,0.00,,,0.00,VWS V13.01,2012-11-26 06:02:00,
2012-11-26 00:06:00,39.4,33.7,30.19,NNE,32,0.0,0.0,80,0.00,,,0.00,VWS V13.01,2012-11-26 06:06:00,
2012-11-26 00:11:00,39.2,33.5,30.19,NNE,32,0.0,0.0,80,0.00,,,0.00,VWS V13.01,2012-11-26 06:11:00,
2012-11-26 00:16:00,38.6,33.3,30.19,NE,53,0.0,0.0,81,0.00,,,0.00,VWS V13.01,2012-11-26 06:16:00,
2012-11-26 00:21:00,38.6,33.9,30.19,NE,48,0.0,0.0,83,0.00,,,0.00,VWS V13.01,2012-11-26 06:21:00,
2012-11-26 00:26:00,38.6,34.2,30.19,NE,48,0.0,0.0,84,0.00,,,0.00,VWS V13.01,2012-11-26 06:26:00,
2012-11-26 00:31:00,38.6,34.2,30.19,NE,48,0.0,0.0,84,0.00,,,0.00,VWS V13.01,2012-11-26 06:31:00,
2012-11-26 00:36:00,38.6,33.6,30.19,NE,48,0.0,0.0,82,0.00,,,0.00,VWS V13.01,2012-11-26 06:36:00,
2012-11-26 00:41:00,38.5,33.8,30.19,NE,45,0.0,0.0,83,0.00,,,0.00,VWS V13.01,2012-11-26 06:41:00,
2012-11-26 00:46:00,38.3,33.9,30.19,ENE,68,0.0,0.0,84,0.00,,,0.00,VWS V13.01,2012-11-26 06:46:00,
2012-11-26 00:51:00,38.5,34.3,30.19,ENE,68,0.0,0.0,85,0.00,,,0.00,VWS V13.01,2012-11-26 06:51:00,
2012-11-26 00:56:00,39.0,34.9,30.19,NE,44,0.0,0.0,85,0.00,,,0.00,VWS V13.01,2012-11-26 06:56:00,
2012-11-26 01:01:00,39.0,34.0,30.19,NE,37,0.0,0.0,82,0.00,,,0.00,VWS V13.01,2012-11-26 07:01:00,
2012-11-26 01:06:00,39.2,33.8,30.19,NNE,26,0.0,0.0,81,0.00,,,0.00,VWS V13.01,2012-11-26 07:06:00,
2012-11-26 01:11:00,39.0,33.7,30.19,NNE,31,0.0,0.0,81,0.00,,,0.00,VWS V13.01,2012-11-26 07:11:00,
2012-11-26 01:16:00,39.0,33.4,30.19,NNE,31,0.0,0.0,80,0.00,,,0.00,VWS V13.01,2012-11-26 07:16:00,
2012-11-26 01:21:00,38.8,33.5,30.19,East,90,0.0,0.0,81,0.00,,,0.00,VWS V13.01,2012-11-26 07:21:00,
2012-11-26 01:26:00,39.4,34.3,30.19,East,90,0.0,0.0,82,0.00,,,0.00,VWS V13.01,2012-11-26 07:26:00,
2012-11-26 01:31:00,39.4,33.7,30.19,East,90,0.0,0.0,80,0.00,,,0.00,VWS V13.01,2012-11-26 07:31:00,
2012-11-26 01:36:00,39.2,33.5,30.19,East,90,0.0,0.0,80,0.00,,,0.00,VWS V13.01,2012-11-26 07:36:00,
2012-11-26 01:41:00,39.2,33.8,30.19,East,90,0.0,0.0,81,0.00,,,0.00,VWS V13.01,2012-11-26 07:41:00,
2012-11-26 01:46:00,39.4,34.0,30.19,East,90,0.0,0.0,81,0.00,,,0.00,VWS V13.01,2012-11-26 07:46:00,
2012-11-26 01:51:00,39.5,34.2,30.19,East,90,0.0,0.0,81,0.00,,,0.00,VWS V13.01,2012-11-26 07:51:00,
2012-11-26 01:56:00,39.5,33.9,30.19,East,90,0.0,0.0,80,0.00,,,0.00,VWS V13.01,2012-11-26 07:56:00,
2012-11-26 02:01:00,39.9,34.2,30.19,East,90,0.0,0.0,80,0.00,,,0.00,VWS V13.01,2012-11-26 08:01:00,
2012-11-26 02:06:00,40.1,33.8,30.19,East,90,0.0,0.0,78,0.00,,,0.00,VWS V13.01,2012-11-26 08:06:00,
2012-11-26 02:11:00,40.1,34.1,30.19,NE,35,0.0,0.0,79,0.00,,,0.00,VWS V13.01,2012-11-26 08:11:00,
2012-11-26 02:16:00,40.3,33.3,30.19,NNE,31,0.0,0.0,76,0.00,,,0.00,VWS V13.01,2012-11-26 08:16:00,
2012-11-26 02:21:00,40.4,33.8,30.19,ENE,65,0.0,0.0,77,0.00,,,0.00,VWS V13.01,2012-11-26 08:21:00,
2012-11-26 02:26:00,40.8,33.8,30.19,ENE,65,0.0,0.0,76,0.00,,,0.00,VWS V13.01,2012-11-26 08:26:00,
2012-11-26 02:31:00,40.4,32.8,30.19,NNE,23,0.0,0.0,74,0.00,,,0.00,VWS V13.01,2012-11-26 08:31:00,
2012-11-26 02:36:00,40.3,33.6,30.19,NNE,23,3.1,3.6,77,0.00,,,0.00,VWS V13.01,2012-11-26 08:36:00,
2012-11-26 02:41:00,39.9,33.6,30.19,South,170,2.7,2.7,78,0.00,,,0.00,VWS V13.01,2012-11-26 08:41:00,
2012-11-26 02:46:00,39.7,33.4,30.19,NNE,23,0.0,0.0,78,0.00,,,0.00,VWS V13.01,2012-11-26 08:46:00,
2012-11-26 02:51:00,39.5,33.6,30.19,NNE,23,0.0,0.0,79,0.00,,,0.00,VWS V13.01,2012-11-26 08:51:00,
2012-11-26 02:56:00,39.4,33.1,30.19,NNE,13,0.0,0.0,78,0.00,,,0.00,VWS V13.01,2012-11-26 08:56:00,
2012-11-26 03:01:00,39.5,33.9,30.19,NNE,13,0.0,0.0,80,0.00,,,0.00,VWS V13.01,2012-11-26 09:01:00,
2012-11-26 03:06:00,39.7,33.8,30.19,NNE,13,0.0,0.0,79,0.00,,,0.00,VWS V13.01,2012-11-26 09:06:00,
2012-11-26 03:11:00,39.7,33.8,30.19,NNE,13,0.0,0.0,79,0.00,,,0.00,VWS V13.01,2012-11-26 09:11:00,
2012-11-26 03:16:00,40.1,33.8,30.19,NNE,13,0.0,0.0,78,0.00,,,0.00,VWS V13.01,2012-11-26 09:16:00,
2012-11-26 03:21:00,39.7,33.4,30.19,NNE,13,0.0,0.0,78,0.00,,,0.00,VWS V13.01,2012-11-26 09:21:00,
2012-11-26 03:26:00,39.7,33.8,30.19,NNE,13,0.0,0.0,79,0.00,,,0.00,VWS V13.01,2012-11-26 09:26:00,
2012-11-26 03:31:00,40.3,34.3,30.19,NNE,13,0.0,0.0,79,0.00,,,0.00,VWS V13.01,2012-11-26 09:31:00,
2012-11-26 03:36:00,40.6,34.3,30.19,NNE,13,0.0,0.0,78,0.00,,,0.00,VWS V13.01,2012-11-26 09:36:00,
2012-11-26 03:41:00,41.2,33.8,30.19,NNE,13,0.0,0.0,75,0.00,,,0.00,VWS V13.01,2012-11-26 09:41:00,
2012-11-26 03:46:00,41.2,33.8,30.19,NNE,13,0.0,0.0,75,0.00,,,0.00,VWS V13.01,2012-11-26 09:46:00,
2012-11-26 03:51:00,41.7,34.0,30.19,NNE,13,0.0,0.0,74,0.00,,,0.00,VWS V13.01,2012-11-26 09:51:00,
2012-11-26 03:56:00,41.9,33.5,30.19,NNE,13,0.0,0.0,72,0.00,,,0.00,VWS V13.01,2012-11-26 09:56:00,
2012-11-26 04:01:00,41.3,33.3,30.19,NNE,13,0.0,0.0,73,0.00,,,0.00,VWS V13.01,2012-11-26 10:01:00,
2012-11-26 04:06:00,41.5,33.5,30.19,NNE,22,0.0,0.0,73,0.00,,,0.00,VWS V13.01,2012-11-26 10:06:00,
2012-11-26 04:11:00,41.7,34.0,30.19,NNE,22,0.0,0.0,74,0.00,,,0.00,VWS V13.01,2012-11-26 10:11:00,
2012-11-26 04:16:00,42.1,33.7,30.19,NNE,22,0.0,0.0,72,0.00,,,0.00,VWS V13.01,2012-11-26 10:16:00,
2012-11-26 04:21:00,42.2,33.9,30.19,NNE,22,0.0,0.0,72,0.00,,,0.00,VWS V13.01,2012-11-26 10:21:00,
2012-11-26 04:26:00,42.6,33.9,30.19,NNE,22,0.0,0.0,71,0.00,,,0.00,VWS V13.01,2012-11-26 10:26:00,
2012-11-26 04:31:00,43.0,34.2,30.19,NNE,22,0.0,0.0,71,0.00,,,0.00,VWS V13.01,2012-11-26 10:31:00,
2012-11-26 04:36:00,43.1,34.0,30.19,NNE,22,0.0,0.0,70,0.00,,,0.00,VWS V13.01,2012-11-26 10:36:00,
2012-11-26 04:41:00,43.3,33.8,30.19,NNE,22,0.0,0.0,69,0.00,,,0.00,VWS V13.01,2012-11-26 10:41:00,
2012-11-26 04:46:00,43.5,34.0,30.19,NNE,22,0.0,0.0,69,0.00,,,0.00,VWS V13.01,2012-11-26 10:46:00,
2012-11-26 04:51:00,43.3,34.2,30.19,North,4,0.0,0.0,70,0.00,,,0.00,VWS V13.01,2012-11-26 10:51:00,
2012-11-26 04:56:00,42.4,33.7,30.19,North,1,0.0,0.0,71,0.00,,,0.00,VWS V13.01,2012-11-26 10:56:00,
2012-11-26 05:01:00,42.1,33.7,30.19,North,1,0.0,0.0,72,0.00,,,0.00,VWS V13.01,2012-11-26 11:01:00,
2012-11-26 05:06:00,42.2,33.9,30.19,North,1,0.0,0.0,72,0.00,,,0.00,VWS V13.01,2012-11-26 11:06:00,
2012-11-26 05:11:00,42.8,33.7,30.19,North,1,0.0,0.0,70,0.00,,,0.00,VWS V13.01,2012-11-26 11:11:00,
2012-11-26 05:16:00,43.1,33.7,30.19,North,1,0.0,0.0,69,0.00,,,0.00,VWS V13.01,2012-11-26 11:16:00,
2012-11-26 05:21:00,43.3,33.8,30.19,North,1,0.0,0.0,69,0.00,,,0.00,VWS V13.01,2012-11-26 11:21:00,
2012-11-26 05:26:00,43.3,33.8,30.19,North,1,0.0,0.0,69,0.00,,,0.00,VWS V13.01,2012-11-26 11:26:00,
2012-11-26 05:31:00,43.5,34.0,30.19,North,1,0.0,0.0,69,0.00,,,0.00,VWS V13.01,2012-11-26 11:31:00,
2012-11-26 05:36:00,43.5,34.0,30.19,North,1,0.0,0.0,69,0.00,,,0.00,VWS V13.01,2012-11-26 11:36:00,
2012-11-26 05:41:00,43.5,34.0,30.19,North,1,0.0,0.0,69,0.00,,,0.00,VWS V13.01,2012-11-26 11:41:00,
2012-11-26 05:46:00,43.5,34.0,30.19,North,1,0.0,0.0,69,0.00,,,0.00,VWS V13.01,2012-11-26 11:46:00,
2012-11-26 05:51:00,43.5,34.0,30.19,North,1,0.0,0.0,69,0.00,,,0.00,VWS V13.01,2012-11-26 11:51:00,
2012-11-26 05:56:00,43.3,34.2,30.19,North,1,0.0,0.0,70,0.00,,,0.00,VWS V13.01,2012-11-26 11:56:00,
2012-11-26 06:01:00,43.3,35.3,30.19,North,1,0.0,0.0,73,0.00,,,0.00,VWS V13.01,2012-11-26 12:01:00,
2012-11-26 06:06:00,42.8,35.4,30.19,North,1,0.0,0.0,75,0.00,,,0.00,VWS V13.01,2012-11-26 12:06:00,
2012-11-26 06:11:00,42.6,35.6,30.19,North,1,0.0,0.0,76,0.00,,,0.00,VWS V13.01,2012-11-26 12:11:00,
2012-11-26 06:16:00,42.6,37.2,30.22,North,1,0.0,0.0,81,0.00,,,0.00,VWS V13.01,2012-11-26 12:16:00,
2012-11-26 06:21:00,42.8,37.0,30.22,North,1,0.0,0.0,80,0.00,,,0.00,VWS V13.01,2012-11-26 12:21:00,
2012-11-26 06:26:00,43.0,36.3,30.22,North,1,0.0,0.0,77,0.00,,,0.00,VWS V13.01,2012-11-26 12:26:00,
2012-11-26 06:31:00,43.3,37.3,30.22,North,1,0.0,0.0,79,0.00,,,0.00,VWS V13.01,2012-11-26 12:31:00,
2012-11-26 06:36:00,43.5,36.1,30.22,North,1,0.0,0.0,75,0.00,,,0.00,VWS V13.01,2012-11-26 12:36:00,
2012-11-26 06:41:00,43.9,35.8,30.22,North,1,0.0,0.0,73,0.00,,,0.00,VWS V13.01,2012-11-26 12:41:00,
2012-11-26 06:46:00,44.4,35.6,30.22,North,1,0.0,0.0,71,0.00,,,0.00,VWS V13.01,2012-11-26 12:46:00,
2012-11-26 06:51:00,44.8,36.3,30.22,North,1,0.0,0.0,72,0.00,,,0.00,VWS V13.01,2012-11-26 12:51:00,
2012-11-26 06:56:00,45.1,37.0,30.22,North,1,0.0,0.0,73,0.00,,,0.00,VWS V13.01,2012-11-26 12:56:00,
2012-11-26 07:01:00,45.3,37.2,30.22,North,1,0.0,0.0,73,0.00,,,0.00,VWS V13.01,2012-11-26 13:01:00,
2012-11-26 07:06:00,45.3,35.7,30.22,NNE,29,0.0,0.0,69,0.00,,,0.00,VWS V13.01,2012-11-26 13:06:00,
2012-11-26 07:11:00,45.5,36.3,30.22,NNE,29,0.0,0.0,70,0.00,,,0.00,VWS V13.01,2012-11-26 13:11:00,
2012-11-26 07:16:00,45.7,36.8,30.22,NE,35,0.0,0.0,71,0.00,,,0.00,VWS V13.01,2012-11-26 13:16:00,
2012-11-26 07:21:00,45.7,36.1,30.22,NE,35,0.0,0.0,69,0.00,,,0.00,VWS V13.01,2012-11-26 13:21:00,
2012-11-26 07:26:00,45.8,35.9,30.22,NE,35,0.0,0.0,68,0.00,,,0.00,VWS V13.01,2012-11-26 13:26:00,
2012-11-26 07:31:00,46.2,36.6,30.22,NE,35,0.0,0.0,69,0.00,,,0.00,VWS V13.01,2012-11-26 13:31:00,
2012-11-26 07:36:00,46.6,37.3,30.22,NNE,24,0.0,0.0,70,0.00,,,0.00,VWS V13.01,2012-11-26 13:36:00,
2012-11-26 07:41:00,46.7,37.1,30.22,NNE,16,3.1,3.1,69,0.00,,,0.00,VWS V13.01,2012-11-26 13:41:00,
2012-11-26 07:46:00,46.9,36.9,30.22,NNE,29,3.1,3.1,68,0.00,,,0.00,VWS V13.01,2012-11-26 13:46:00,
2012-11-26 07:51:00,47.1,37.1,30.22,NNE,29,2.7,3.1,68,0.00,,,0.00,VWS V13.01,2012-11-26 13:51:00,
2012-11-26 07:56:00,47.5,37.4,30.22,NE,37,2.2,2.7,68,0.00,,,0.00,VWS V13.01,2012-11-26 13:56:00,
2012-11-26 08:01:00,47.6,37.6,30.22,NE,37,2.7,2.7,68,0.00,,,0.00,VWS V13.01,2012-11-26 14:01:00,
2012-11-26 08:06:00,48.0,37.6,30.22,NE,35,3.6,3.6,67,0.00,,,0.00,VWS V13.01,2012-11-26 14:06:00,
2012-11-26 08:11:00,48.2,37.4,30.22,NE,45,2.7,4.0,66,0.00,,,0.00,VWS V13.01,2012-11-26 14:11:00,
2012-11-26 08:16:00,48.4,37.5,30.25,NE,37,3.6,4.0,66,0.00,,,0.00,VWS V13.01,2012-11-26 14:16:00,
2012-11-26 08:21:00,48.7,37.9,30.25,NE,40,3.1,3.6,66,0.00,,,0.00,VWS V13.01,2012-11-26 14:21:00,
2012-11-26 08:26:00,48.9,38.4,30.25,NE,56,3.1,3.1,67,0.00,,,0.00,VWS V13.01,2012-11-26 14:26:00,
2012-11-26 08:31:00,49.3,37.6,30.25,NNE,33,2.7,2.7,64,0.00,,,0.00,VWS V13.01,2012-11-26 14:31:00,
2012-11-26 08:36:00,49.6,38.0,30.25,NNE,33,2.7,2.7,64,0.00,,,0.00,VWS V13.01,2012-11-26 14:36:00,
2012-11-26 08:41:00,50.0,38.3,30.25,NE,48,3.1,3.1,64,0.00,,,0.00,VWS V13.01,2012-11-26 14:41:00,
2012-11-26 08:46:00,50.3,38.2,30.25,NNE,29,3.1,3.6,63,0.00,,,0.00,VWS V13.01,2012-11-26 14:46:00,
2012-11-26 08:51:00,50.5,38.4,30.25,NE,48,3.1,3.1,63,0.00,,,0.00,VWS V13.01,2012-11-26 14:51:00,
2012-11-26 08:56:00,50.7,38.6,30.25,NE,52,2.2,3.1,63,0.00,,,0.00,VWS V13.01,2012-11-26 14:56:00,
2012-11-26 09:01:00,50.9,38.8,30.25,NE,45,2.2,2.2,63,0.00,,,0.00,VWS V13.01,2012-11-26 15:01:00,
2012-11-26 09:06:00,50.9,38.8,30.25,NE,43,4.0,4.0,63,0.00,,,0.00,VWS V13.01,2012-11-26 15:06:00,
2012-11-26 09:11:00,51.1,39.3,30.25,NE,42,2.7,2.7,64,0.00,,,0.00,VWS V13.01,2012-11-26 15:11:00,
2012-11-26 09:16:00,51.2,39.1,30.25,NNE,16,3.1,3.1,63,0.00,,,0.00,VWS V13.01,2012-11-26 15:16:00,
2012-11-26 09:21:00,51.4,38.8,30.25,NE,39,4.5,5.4,62,0.00,,,0.00,VWS V13.01,2012-11-26 15:21:00,
2012-11-26 09:26:00,51.6,39.0,30.25,NE,35,3.6,3.6,62,0.00,,,0.00,VWS V13.01,2012-11-26 15:26:00,
2012-11-26 09:31:00,51.6,39.0,30.25,NE,44,4.0,4.0,62,0.00,,,0.00,VWS V13.01,2012-11-26 15:31:00,
2012-11-26 09:36:00,51.8,39.6,30.25,NE,36,2.7,2.7,63,0.00,,,0.00,VWS V13.01,2012-11-26 15:36:00,
2012-11-26 09:41:00,51.8,40.0,30.25,NE,46,0.0,0.0,64,0.00,,,0.00,VWS V13.01,2012-11-26 15:41:00,
2012-11-26 09:46:00,52.0,40.2,30.25,NE,43,2.7,3.1,64,0.00,,,0.00,VWS V13.01,2012-11-26 15:46:00,
2012-11-26 09:51:00,52.0,39.8,30.25,NE,48,2.7,2.7,63,0.00,,,0.00,VWS V13.01,2012-11-26 15:51:00,
2012-11-26 09:56:00,52.1,39.9,30.25,NE,38,2.7,2.7,63,0.00,,,0.00,VWS V13.01,2012-11-26 15:56:00,
2012-11-26 10:01:00,52.1,40.3,30.25,ENE,60,2.7,2.7,64,0.00,,,0.00,VWS V13.01,2012-11-26 16:01:00,
2012-11-26 10:06:00,52.3,39.7,30.25,NE,38,3.6,3.6,62,0.00,,,0.00,VWS V13.01,2012-11-26 16:06:00,
2012-11-26 10:11:00,52.3,40.1,30.25,NE,51,2.7,2.7,63,0.00,,,0.00,VWS V13.01,2012-11-26 16:11:00,
2012-11-26 10:15:00,52.3,40.1,30.25,ENE,60,3.1,3.1,63,0.00,,,0.00,VWS V13.01,2012-11-26 16:15:00,
2012-11-26 10:21:00,52.3,39.7,30.25,ENE,70,4.0,4.0,62,0.00,,,0.00,VWS V13.01,2012-11-26 16:21:00,
2012-11-26 10:26:00,52.5,39.9,30.25,ENE,62,3.1,3.1,62,0.00,,,0.00,VWS V13.01,2012-11-26 16:26:00,
2012-11-26 10:31:00,52.5,40.3,30.25,NE,43,0.0,0.0,63,0.00,,,0.00,VWS V13.01,2012-11-26 16:31:00,
2012-11-26 10:36:00,52.5,39.9,30.25,NE,49,4.9,4.9,62,0.00,,,0.00,VWS V13.01,2012-11-26 16:36:00,
2012-11-26 10:41:00,52.7,40.5,30.25,NE,39,4.0,4.0,63,0.00,,,0.00,VWS V13.01,2012-11-26 16:41:00,
2012-11-26 10:45:00,52.7,40.5,30.28,NE,51,0.0,0.0,63,0.00,,,0.00,VWS V13.01,2012-11-26 16:45:00,
2012-11-26 10:50:00,53.0,40.8,30.28,NE,41,4.0,4.0,63,0.00,,,0.00,VWS V13.01,2012-11-26 16:50:00,
2012-11-26 10:55:00,53.0,40.4,30.28,NNE,28,8.3,8.3,62,0.00,,,0.00,VWS V13.01,2012-11-26 16:55:00,
2012-11-26 11:00:00,53.0,40.8,30.25,NNE,32,5.4,5.4,63,0.00,,,0.00,VWS V13.01,2012-11-26 17:00:00,
2012-11-26 11:05:00,53.2,41.4,30.25,ENE,64,2.7,2.7,64,0.00,,,0.00,VWS V13.01,2012-11-26 17:05:00,
2012-11-26 11:10:00,53.4,41.1,30.25,NNE,30,2.2,2.2,63,0.00,,,0.00,VWS V13.01,2012-11-26 17:10:00,
2012-11-26 11:15:00,53.8,41.9,30.25,NE,47,4.0,4.0,64,0.00,,,0.00,VWS V13.01,2012-11-26 17:15:00,
2012-11-26 11:20:00,53.9,42.1,30.25,ENE,67,0.0,2.7,64,0.00,,,0.00,VWS V13.01,2012-11-26 17:20:00,
2012-11-26 11:25:00,54.3,42.0,30.25,NE,37,4.0,4.0,63,0.00,,,0.00,VWS V13.01,2012-11-26 17:25:00,
2012-11-26 11:30:00,54.5,42.6,30.25,ENE,60,3.1,4.0,64,0.00,,,0.00,VWS V13.01,2012-11-26 17:30:00,
2012-11-26 11:35:00,54.7,42.7,30.25,NNE,19,2.2,2.2,64,0.00,,,0.00,VWS V13.01,2012-11-26 17:35:00,
2012-11-26 11:40:00,55.0,42.7,30.25,NE,35,4.0,4.0,63,0.00,,,0.00,VWS V13.01,2012-11-26 17:40:00,
2012-11-26 11:45:00,55.2,42.8,30.25,North,7,4.9,4.9,63,0.00,,,0.00,VWS V13.01,2012-11-26 17:45:00,
2012-11-26 11:50:00,55.4,43.4,30.25,NE,45,3.6,4.0,64,0.00,,,0.00,VWS V13.01,2012-11-26 17:50:00,
2012-11-26 11:55:00,55.4,43.4,30.25,NE,41,4.0,4.9,64,0.00,,,0.00,VWS V13.01,2012-11-26 17:55:00,
2012-11-26 12:00:00,55.4,43.4,30.25,NNE,24,4.0,5.4,64,0.00,,,0.00,VWS V13.01,2012-11-26 18:00:00,
2012-11-26 12:05:00,55.6,43.6,30.25,NNE,23,2.7,4.9,64,0.00,,,0.00,VWS V13.01,2012-11-26 18:05:00,
2012-11-26 12:10:00,55.6,43.6,30.25,North,7,2.2,4.0,64,0.00,,,0.00,VWS V13.01,2012-11-26 18:10:00,
2012-11-26 12:15:00,55.9,44.3,30.22,NNE,28,2.7,4.0,65,0.00,,,0.00,VWS V13.01,2012-11-26 18:15:00,
2012-11-26 12:20:00,56.1,44.1,30.22,SE,125,3.6,3.6,64,0.00,,,0.00,VWS V13.01,2012-11-26 18:20:00,
2012-11-26 12:25:00,56.5,44.5,30.22,ENE,65,0.0,3.6,64,0.00,,,0.00,VWS V13.01,2012-11-26 18:25:00,
2012-11-26 12:30:00,56.5,44.5,30.25,ESE,118,3.1,3.1,64,0.00,,,0.00,VWS V13.01,2012-11-26 18:30:00,
2012-11-26 12:35:00,56.3,43.9,30.25,SE,129,5.8,5.8,63,0.00,,,0.00,VWS V13.01,2012-11-26 18:35:00,
2012-11-26 12:40:00,56.1,44.1,30.25,ESE,120,3.6,4.0,64,0.00,,,0.00,VWS V13.01,2012-11-26 18:40:00,
2012-11-26 12:45:00,56.1,44.1,30.25,ENE,57,0.0,0.0,64,0.00,,,0.00,VWS V13.01,2012-11-26 18:45:00,
2012-11-26 12:50:00,56.3,43.9,30.25,East,92,3.1,4.0,63,0.00,,,0.00,VWS V13.01,2012-11-26 18:50:00,
2012-11-26 12:55:00,56.1,43.7,30.25,ENE,77,2.7,3.6,63,0.00,,,0.00,VWS V13.01,2012-11-26 18:55:00,
2012-11-26 13:00:00,56.3,43.9,30.22,NE,53,3.1,3.1,63,0.00,,,0.00,VWS V13.01,2012-11-26 19:00:00,
2012-11-26 13:05:00,56.3,43.9,30.22,SE,129,3.6,5.4,63,0.00,,,0.00,VWS V13.01,2012-11-26 19:05:00,
2012-11-26 13:10:00,56.3,43.9,30.22,East,80,4.9,5.8,63,0.00,,,0.00,VWS V13.01,2012-11-26 19:10:00,
2012-11-26 13:15:00,56.1,43.3,30.22,SE,138,2.7,4.0,62,0.00,,,0.00,VWS V13.01,2012-11-26 19:15:00,
2012-11-26 13:20:00,56.1,43.7,30.22,ESE,115,0.0,0.0,63,0.00,,,0.00,VWS V13.01,2012-11-26 19:20:00,
2012-11-26 13:25:00,56.3,43.4,30.22,ESE,123,3.6,3.6,62,0.00,,,0.00,VWS V13.01,2012-11-26 19:25:00,
2012-11-26 13:30:00,56.3,44.3,30.22,ENE,71,3.6,3.6,64,0.00,,,0.00,VWS V13.01,2012-11-26 19:30:00,
2012-11-26 13:35:00,56.5,44.8,30.22,East,83,5.4,5.4,65,0.00,,,0.00,VWS V13.01,2012-11-26 19:35:00,
2012-11-26 13:40:00,56.3,44.7,30.22,ENE,71,4.9,5.4,65,0.00,,,0.00,VWS V13.01,2012-11-26 19:40:00,
2012-11-26 13:45:00,56.1,44.1,30.22,ENE,66,2.7,3.1,64,0.00,,,0.00,VWS V13.01,2012-11-26 19:45:00,
2012-11-26 13:50:00,55.9,43.9,30.22,ENE,62,5.4,5.8,64,0.00,,,0.00,VWS V13.01,2012-11-26 19:50:00,
2012-11-26 13:55:00,56.1,44.5,30.22,NE,53,3.1,3.6,65,0.00,,,0.00,VWS V13.01,2012-11-26 19:55:00,
2012-11-26 14:00:00,55.9,44.3,30.22,ENE,76,2.7,3.6,65,0.00,,,0.00,VWS V13.01,2012-11-26 20:00:00,
2012-11-26 14:05:00,55.9,44.3,30.22,ENE,57,2.2,2.2,65,0.00,,,0.00,VWS V13.01,2012-11-26 20:05:00,
2012-11-26 14:10:00,56.1,44.5,30.22,ENE,72,3.6,3.6,65,0.00,,,0.00,VWS V13.01,2012-11-26 20:10:00,
2012-11-26 14:15:00,56.1,44.5,30.22,East,94,0.0,3.1,65,0.00,,,0.00,VWS V13.01,2012-11-26 20:15:00,
2012-11-26 14:20:00,56.3,44.7,30.22,NE,48,0.0,0.0,65,0.00,,,0.00,VWS V13.01,2012-11-26 20:20:00,
2012-11-26 14:25:00,56.3,44.7,30.22,NE,48,0.0,0.0,65,0.00,,,0.00,VWS V13.01,2012-11-26 20:25:00,
2012-11-26 14:30:00,56.3,44.3,30.22,NE,48,0.0,0.0,64,0.00,,,0.00,VWS V13.01,2012-11-26 20:30:00,
2012-11-26 14:35:00,56.5,44.5,30.22,NE,48,0.0,0.0,64,0.00,,,0.00,VWS V13.01,2012-11-26 20:35:00,
2012-11-26 14:40:00,56.6,44.6,30.22,North,354,0.0,2.2,64,0.00,,,0.00,VWS V13.01,2012-11-26 20:40:00,
2012-11-26 14:45:00,56.6,44.6,30.25,NE,46,0.0,3.6,64,0.00,,,0.00,VWS V13.01,2012-11-26 20:45:00,
2012-11-26 14:50:00,56.8,44.8,30.25,East,85,0.0,2.2,64,0.00,,,0.00,VWS V13.01,2012-11-26 20:50:00,
2012-11-26 14:55:00,56.8,44.8,30.25,North,358,0.0,0.0,64,0.00,,,0.00,VWS V13.01,2012-11-26 20:55:00,
2012-11-26 15:00:00,57.0,45.0,30.25,ENE,60,2.2,2.2,64,0.00,,,0.00,VWS V13.01,2012-11-26 21:00:00,
2012-11-26 15:05:00,57.2,45.1,30.25,NE,41,0.0,0.0,64,0.00,,,0.00,VWS V13.01,2012-11-26 21:05:00,
2012-11-26 15:10:00,57.2,45.1,30.25,NE,50,0.0,0.0,64,0.00,,,0.00,VWS V13.01,2012-11-26 21:10:00,
2012-11-26 15:15:00,57.2,45.1,30.25,NE,50,0.0,0.0,64,0.00,,,0.00,VWS V13.01,2012-11-26 21:15:00,
2012-11-26 15:20:00,57.0,45.0,30.25,East,81,4.0,4.0,64,0.00,,,0.00,VWS V13.01,2012-11-26 21:20:00,
2012-11-26 15:25:00,56.8,44.8,30.25,ESE,102,0.0,2.7,64,0.00,,,0.00,VWS V13.01,2012-11-26 21:25:00,
2012-11-26 15:30:00,56.8,44.8,30.25,East,85,2.7,2.7,64,0.00,,,0.00,VWS V13.01,2012-11-26 21:30:00,
2012-11-26 15:35:00,56.6,44.6,30.25,NE,50,2.7,2.7,64,0.00,,,0.00,VWS V13.01,2012-11-26 21:35:00,
2012-11-26 15:40:00,56.6,45.0,30.25,NE,48,2.2,2.2,65,0.00,,,0.00,VWS V13.01,2012-11-26 21:40:00,
2012-11-26 15:45:00,56.5,44.8,30.25,ENE,58,3.1,3.1,65,0.00,,,0.00,VWS V13.01,2012-11-26 21:45:00,
2012-11-26 15:50:00,56.5,44.8,30.25,NE,38,2.7,4.0,65,0.00,,,0.00,VWS V13.01,2012-11-26 21:50:00,
2012-11-26 15:55:00,56.5,44.8,30.25,NE,41,0.0,0.0,65,0.00,,,0.00,VWS V13.01,2012-11-26 21:55:00,
2012-11-26 16:00:00,56.5,44.8,30.28,NNE,27,0.0,0.0,65,0.00,,,0.00,VWS V13.01,2012-11-26 22:00:00,
2012-11-26 16:05:00,56.5,44.8,30.28,North,9,0.0,0.0,65,0.00,,,0.00,VWS V13.01,2012-11-26 22:05:00,
2012-11-26 16:10:00,56.5,44.8,30.28,NNE,25,0.0,0.0,65,0.00,,,0.00,VWS V13.01,2012-11-26 22:10:00,
2012-11-26 16:15:00,56.5,44.8,30.28,NNE,12,0.0,0.0,65,0.00,,,0.00,VWS V13.01,2012-11-26 22:15:00,
2012-11-26 16:20:00,56.3,44.7,30.28,NNE,31,0.0,0.0,65,0.00,,,0.00,VWS V13.01,2012-11-26 22:20:00,
2012-11-26 16:25:00,56.3,45.1,30.28,ENE,71,0.0,0.0,66,0.00,,,0.00,VWS V13.01,2012-11-26 22:25:00,
2012-11-26 16:30:00,56.1,44.9,30.28,ENE,71,0.0,0.0,66,0.00,,,0.00,VWS V13.01,2012-11-26 22:30:00,
2012-11-26 16:35:00,55.9,44.7,30.28,North,3,3.6,3.6,66,0.00,,,0.00,VWS V13.01,2012-11-26 22:35:00,
2012-11-26 16:40:00,55.9,44.7,30.28,North,349,0.0,4.0,66,0.00,,,0.00,VWS V13.01,2012-11-26 22:40:00,
2012-11-26 16:45:00,55.9,43.5,30.31,North,11,4.0,4.9,63,0.00,,,0.00,VWS V13.01,2012-11-26 22:45:00,
2012-11-26 16:50:00,55.6,42.8,30.31,NNE,13,5.8,5.8,62,0.00,,,0.00,VWS V13.01,2012-11-26 22:50:00,
2012-11-26 16:55:00,54.8,42.1,30.31,NNE,15,4.5,5.8,62,0.00,,,0.00,VWS V13.01,2012-11-26 22:55:00,
2012-11-26 17:00:00,54.5,41.7,30.34,North,1,4.0,4.0,62,0.00,,,0.00,VWS V13.01,2012-11-26 23:00:00,
2012-11-26 17:05:00,54.1,41.4,30.34,NE,55,3.6,4.0,62,0.00,,,0.00,VWS V13.01,2012-11-26 23:05:00,
2012-11-26 17:10:00,53.9,41.2,30.34,NNW,337,2.7,4.5,62,0.00,,,0.00,VWS V13.01,2012-11-26 23:10:00,
2012-11-26 17:15:00,53.6,39.6,30.34,NW,326,5.8,7.2,59,0.00,,,0.00,VWS V13.01,2012-11-26 23:15:00,
2012-11-26 17:20:00,53.0,39.1,30.34,NNW,331,6.3,6.3,59,0.00,,,0.00,VWS V13.01,2012-11-26 23:20:00,
2012-11-26 17:25:00,52.5,39.0,30.34,NW,323,7.6,7.6,60,0.00,,,0.00,VWS V13.01,2012-11-26 23:25:00,
2012-11-26 17:30:00,51.8,38.8,30.37,NW,322,5.4,5.4,61,0.00,,,0.00,VWS V13.01,2012-11-26 23:30:00,
2012-11-26 17:35:00,51.2,38.7,30.37,NNW,344,4.0,5.8,62,0.00,,,0.00,VWS V13.01,2012-11-26 23:35:00,
2012-11-26 17:40:00,50.7,38.6,30.37,NNW,342,5.8,10.1,63,0.00,,,0.00,VWS V13.01,2012-11-26 23:40:00,
2012-11-26 17:45:00,50.2,38.5,30.37,NNE,13,5.4,8.3,64,0.00,,,0.00,VWS V13.01,2012-11-26 23:45:00,
2012-11-26 17:50:00,49.8,38.5,30.37,North,358,3.1,5.4,65,0.00,,,0.00,VWS V13.01,2012-11-26 23:50:00,
2012-11-26 17:55:00,49.6,38.3,30.37,NNW,332,5.4,6.3,65,0.00,,,0.00,VWS V13.01,2012-11-26 23:55:00,
2012-11-26 18:00:00,49.3,38.0,30.40,North,352,6.3,7.6,65,0.00,,,0.00,VWS V13.01,2012-11-27 00:00:00,
2012-11-26 18:05:00,48.5,37.7,30.40,North,4,6.3,10.5,66,0.00,,,0.00,VWS V13.01,2012-11-27 00:05:00,
2012-11-26 18:10:00,48.0,38.0,30.40,NW,320,3.6,6.3,68,0.00,,,0.00,VWS V13.01,2012-11-27 00:10:00,
2012-11-26 18:15:00,47.3,38.0,30.40,North,350,3.1,6.3,70,0.00,,,0.00,VWS V13.01,2012-11-27 00:15:00,
2012-11-26 18:20:00,46.7,37.1,30.40,NNE,16,6.3,6.3,69,0.00,,,0.00,VWS V13.01,2012-11-27 00:20:00,
2012-11-26 18:25:00,46.4,36.4,30.40,NNW,336,6.7,6.7,68,0.00,,,0.00,VWS V13.01,2012-11-27 00:25:00,
2012-11-26 18:30:00,46.2,36.6,30.40,NNW,333,3.6,4.0,69,0.00,,,0.00,VWS V13.01,2012-11-27 00:30:00,
2012-11-26 18:35:00,45.8,35.9,30.40,NW,320,6.3,8.7,68,0.00,,,0.00,VWS V13.01,2012-11-27 00:35:00,
2012-11-26 18:40:00,45.8,35.9,30.40,North,349,4.9,5.4,68,0.00,,,0.00,VWS V13.01,2012-11-27 00:40:00,
2012-11-26 18:45:00,45.8,35.9,30.43,NW,309,3.1,3.1,68,0.00,,,0.00,VWS V13.01,2012-11-27 00:45:00,
2012-11-26 18:50:00,45.7,35.7,30.43,North,354,5.4,5.4,68,0.00,,,0.00,VWS V13.01,2012-11-27 00:50:00,
2012-11-26 18:55:00,45.7,35.3,30.43,NW,319,3.6,6.3,67,0.00,,,0.00,VWS V13.01,2012-11-27 00:55:00,
2012-11-26 19:00:00,45.5,35.5,30.46,NNE,32,5.4,5.4,68,0.00,,,0.00,VWS V13.01,2012-11-27 01:00:00,
2012-11-26 19:05:00,45.1,35.6,30.46,North,349,7.6,7.6,69,0.00,,,0.00,VWS V13.01,2012-11-27 01:05:00,
2012-11-26 19:10:00,44.9,35.4,30.46,North,4,4.9,6.3,69,0.00,,,0.00,VWS V13.01,2012-11-27 01:10:00,
2012-11-26 19:15:00,44.9,35.0,30.46,NW,318,3.1,5.8,68,0.00,,,0.00,VWS V13.01,2012-11-27 01:15:00,
2012-11-26 19:20:00,44.9,35.0,30.46,North,358,5.4,5.4,68,0.00,,,0.00,VWS V13.01,2012-11-27 01:20:00,
2012-11-26 19:25:00,45.1,35.2,30.46,NNW,337,3.1,5.4,68,0.00,,,0.00,VWS V13.01,2012-11-27 01:25:00,
2012-11-26 19:30:00,45.1,34.8,30.46,NNW,336,3.6,4.9,67,0.00,,,0.00,VWS V13.01,2012-11-27 01:30:00,
2012-11-26 19:35:00,45.1,34.5,30.46,NNE,17,4.0,5.4,66,0.00,,,0.00,VWS V13.01,2012-11-27 01:35:00,
2012-11-26 19:40:00,45.3,35.0,30.46,NNE,13,0.0,0.0,67,0.00,,,0.00,VWS V13.01,2012-11-27 01:40:00,
2012-11-26 19:45:00,45.3,35.0,30.46,North,2,2.7,3.6,67,0.00,,,0.00,VWS V13.01,2012-11-27 01:45:00,
2012-11-26 19:50:00,45.3,34.6,30.46,NE,36,4.9,4.9,66,0.00,,,0.00,VWS V13.01,2012-11-27 01:50:00,
2012-11-26 19:55:00,45.3,34.2,30.46,NW,308,7.6,7.6,65,0.00,,,0.00,VWS V13.01,2012-11-27 01:55:00,
2012-11-26 20:00:00,45.3,34.2,30.49,NNE,20,4.5,4.5,65,0.00,,,0.00,VWS V13.01,2012-11-27 02:00:00,
2012-11-26 20:05:00,45.1,34.5,30.49,NNW,338,5.4,5.4,66,0.00,,,0.00,VWS V13.01,2012-11-27 02:05:00,
2012-11-26 20:10:00,45.1,34.1,30.49,NNW,338,3.6,3.6,65,0.00,,,0.00,VWS V13.01,2012-11-27 02:10:00,
2012-11-26 20:15:00,45.1,34.1,30.49,NNE,27,2.2,3.1,65,0.00,,,0.00,VWS V13.01,2012-11-27 02:15:00,
2012-11-26 20:20:00,45.1,34.5,30.49,NE,44,3.1,3.6,66,0.00,,,0.00,VWS V13.01,2012-11-27 02:20:00,
2012-11-26 20:25:00,45.1,34.8,30.49,North,4,0.0,0.0,67,0.00,,,0.00,VWS V13.01,2012-11-27 02:25:00,
2012-11-26 20:30:00,45.1,33.7,30.52,NE,37,6.3,6.3,64,0.00,,,0.00,VWS V13.01,2012-11-27 02:30:00,
2012-11-26 20:35:00,45.1,34.1,30.52,North,350,2.7,2.7,65,0.00,,,0.00,VWS V13.01,2012-11-27 02:35:00,
2012-11-26 20:40:00,45.1,34.1,30.52,NNW,339,2.2,2.2,65,0.00,,,0.00,VWS V13.01,2012-11-27 02:40:00,
2012-11-26 20:45:00,45.1,34.1,30.52,NW,326,0.0,0.0,65,0.00,,,0.00,VWS V13.01,2012-11-27 02:45:00,
2012-11-26 20:50:00,44.9,34.3,30.52,NNW,327,0.0,0.0,66,0.00,,,0.00,VWS V13.01,2012-11-27 02:50:00,
2012-11-26 20:55:00,44.9,33.9,30.52,NNW,327,0.0,0.0,65,0.00,,,0.00,VWS V13.01,2012-11-27 02:55:00,
2012-11-26 21:00:00,44.9,33.9,30.52,North,1,0.0,0.0,65,0.00,,,0.00,VWS V13.01,2012-11-27 03:00:00,
2012-11-26 21:05:00,44.9,33.5,30.52,North,353,3.1,3.1,64,0.00,,,0.00,VWS V13.01,2012-11-27 03:05:00,
2012-11-26 21:10:00,44.8,33.0,30.52,NNE,16,4.0,4.0,63,0.00,,,0.00,VWS V13.01,2012-11-27 03:10:00,
2012-11-26 21:14:00,44.6,32.8,30.52,NNW,332,5.4,5.4,63,0.00,,,0.00,VWS V13.01,2012-11-27 03:14:00,
2012-11-26 21:19:00,44.6,32.4,30.52,NNW,333,5.4,6.3,62,0.00,,,0.00,VWS V13.01,2012-11-27 03:19:00,
2012-11-26 21:24:00,44.6,32.8,30.52,NNW,345,2.7,4.9,63,0.00,,,0.00,VWS V13.01,2012-11-27 03:24:00,
2012-11-26 21:29:00,44.6,32.8,30.52,NNW,337,3.1,3.1,63,0.00,,,0.00,VWS V13.01,2012-11-27 03:29:00,
2012-11-26 21:34:00,44.4,31.8,30.52,NNE,19,0.0,0.0,61,0.00,,,0.00,VWS V13.01,2012-11-27 03:34:00,
2012-11-26 21:39:00,44.4,31.0,30.52,NNE,26,5.4,8.3,59,0.00,,,0.00,VWS V13.01,2012-11-27 03:39:00,
2012-11-26 21:44:00,44.4,30.6,30.52,NE,37,10.5,10.5,58,0.00,,,0.00,VWS V13.01,2012-11-27 03:44:00,
2012-11-26 21:49:00,44.2,30.8,30.52,North,8,5.8,6.3,59,0.00,,,0.00,VWS V13.01,2012-11-27 03:49:00,
2012-11-26 21:54:00,44.2,30.4,30.52,NNE,15,5.4,5.4,58,0.00,,,0.00,VWS V13.01,2012-11-27 03:54:00,
2012-11-26 21:59:00,44.2,30.4,30.55,NNE,29,4.0,4.9,58,0.00,,,0.00,VWS V13.01,2012-11-27 03:59:00,
2012-11-26 22:04:00,44.2,30.4,30.55,NNE,22,4.0,5.8,58,0.00,,,0.00,VWS V13.01,2012-11-27 04:04:00,
2012-11-26 22:09:00,44.2,30.4,30.55,NE,55,4.0,5.8,58,0.00,,,0.00,VWS V13.01,2012-11-27 04:09:00,
2012-11-26 22:14:00,44.2,30.4,30.55,NNW,341,3.6,5.4,58,0.00,,,0.00,VWS V13.01,2012-11-27 04:14:00,
2012-11-26 22:19:00,44.2,30.0,30.55,NE,40,5.4,5.8,57,0.00,,,0.00,VWS V13.01,2012-11-27 04:19:00,
2012-11-26 22:24:00,44.2,30.0,30.55,NNE,16,6.3,6.3,57,0.00,,,0.00,VWS V13.01,2012-11-27 04:24:00,
2012-11-26 22:29:00,44.0,29.8,30.55,NE,34,5.4,5.4,57,0.00,,,0.00,VWS V13.01,2012-11-27 04:29:00,
2012-11-26 22:34:00,44.0,29.4,30.55,NNE,25,5.8,8.3,56,0.00,,,0.00,VWS V13.01,2012-11-27 04:34:00,
2012-11-26 22:39:00,44.0,29.8,30.55,NNW,338,3.6,4.5,57,0.00,,,0.00,VWS V13.01,2012-11-27 04:39:00,
2012-11-26 22:44:00,43.9,29.2,30.55,NNE,14,8.7,9.6,56,0.00,,,0.00,VWS V13.01,2012-11-27 04:44:00,
2012-11-26 22:49:00,43.9,29.6,30.55,North,360,3.6,8.1,57,0.00,,,0.00,VWS V13.01,2012-11-27 04:49:00,
2012-11-26 22:54:00,43.5,29.3,30.55,NE,49,7.6,7.6,57,0.00,,,0.00,VWS V13.01,2012-11-27 04:54:00,
2012-11-26 22:59:00,43.3,29.1,30.55,NNE,16,4.0,5.4,57,0.00,,,0.00,VWS V13.01,2012-11-27 04:59:00,
2012-11-26 23:00:00,43.3,29.1,30.55,North,5,5.8,7.6,57,0.00,,,0.00,VWS V13.01,2012-11-27 05:00:00,
2012-11-26 23:05:00,43.1,29.4,30.55,NE,44,3.1,4.0,58,0.00,,,0.00,VWS V13.01,2012-11-27 05:05:00,
2012-11-26 23:10:00,42.8,29.0,30.55,North,5,5.4,5.4,58,0.00,,,0.00,VWS V13.01,2012-11-27 05:10:00,
2012-11-26 23:15:00,42.6,28.9,30.55,NNE,21,5.8,8.3,58,0.00,,,0.00,VWS V13.01,2012-11-27 05:15:00,
2012-11-26 23:20:00,42.2,28.5,30.55,NE,48,8.7,12.8,58,0.00,,,0.00,VWS V13.01,2012-11-27 05:20:00,
2012-11-26 23:25:00,42.1,28.4,30.55,NNE,21,5.8,5.8,58,0.00,,,0.00,VWS V13.01,2012-11-27 05:25:00,
2012-11-26 23:30:00,41.9,28.2,30.58,North,1,4.0,5.4,58,0.00,,,0.00,VWS V13.01,2012-11-27 05:30:00,
2012-11-26 23:35:00,41.5,28.3,30.58,NNW,341,4.0,7.6,59,0.00,,,0.00,VWS V13.01,2012-11-27 05:35:00,
2012-11-26 23:40:00,41.3,28.1,30.58,NNE,13,5.4,6.3,59,0.00,,,0.00,VWS V13.01,2012-11-27 05:40:00,
2012-11-26 23:45:00,41.2,27.9,30.58,NNE,19,5.8,5.8,59,0.00,,,0.00,VWS V13.01,2012-11-27 05:45:00,
2012-11-26 23:50:00,41.0,27.8,30.58,North,8,3.6,3.6,59,0.00,,,0.00,VWS V13.01,2012-11-27 05:50:00,
2012-11-26 23:55:00,41.0,27.8,30.58,ENE,63,4.0,4.0,59,0.00,,,0.00,VWS V13.01,2012-11-27 05:55:00,